Location: Hilton Head Island
(32.2163°N, 80.7526°W)
Time: 11:41:34
(UTC-04:00)

S-56A Canister/Altair - Pass Details

Date: 24 February 2026
Orbit: 633 x 2484 km, 38.9° (Epoch: 10 March)

Event Time Altitude Azimuth Distance (km) Brightness Sun altitude
Exits shadow 04:25:26 43° 200° (SSW) 2,258 9.5 -32.5°
Drops below altitude 10° 04:35:43 10° 148° (SSE) 4,637 11.7 -30.4°
Sets 04:40:08 0° 142° (SE) 5,851 12.4 -29.5°
